Regional Weather Roundup
Issued by NWS Pendleton, OR

Home | Current Version | Previous Version | Text Only | Print | Product List | Glossary On
Versions: 1 2 3 4 5 6 7 8 9 10 11 12 13 14 15 16 17 18 19 20 21 22 23 24 25 26 27 28 29 30 31 32 33 34 35 36 37 38 39 40 41 42 43 44 45 46 47 48 49 50
781
ASUS46 KPDT 300925
RWRPDT
PENDLETON REGIONAL WEATHER ROUNDUP
NATIONAL WEATHER SERVICE PENDLETON OREGON
200 AM PDT MON MAY 30 2016

NOTE: FAIR INDICATES FEW OR NO CLOUDS BELOW 12,000 FEET WITH NO
SIGNIFICANT WEATHER AND/OR OBSTRUCTIONS TO VISIBILITY.

# INDICATES UNOFFICIAL STATION AND DATA

WAZ520-301010-
EAST SLOPES OF WASHINGTON CASCADES

CITY            SKY/WX      TMP DP  RH  WIND    PRES   REMARKS
#CLE ELUM HS    N/A         43  36  76  W2      30.15S
#CLE ELUM 2NW   N/A         42  36  79  N1      N/A
#GLENWOOD       N/A         37  35  92  CALM    30.16R
#MANASTASH CYN  N/A         37  29  72  CALM    30.15R
#NELSON 3SW     N/A         38  34  85  CALM    30.37R
#NILE           N/A         41  37  86  CALM    29.46R
#RONALD 2NW     N/A         42  N/A N/A CALM    30.06S
#TEANAWAY 4NE   N/A         39  34  82  CALM    N/A
#TROUT LAKE 1NE N/A         44  38  79  CALM    30.16R
#TROUT LAKE 1E  N/A         44  38  79  CALM    30.14S
$$

WAZ521-301010-
SIMCOE HIGHLANDS

CITY            SKY/WX      TMP DP  RH  WIND    PRES   REMARKS
#CENTERVILLE 1SWN/A         43  37  79  W1      30.12R
#GOLDENDALE 1NE N/A         43  28  55  N3      N/A
#GOLDENDALE 4W  N/A         45  44  96  NE2     30.20R
#GOODNOE HILLS  N/A         50  41  71  NW6     30.08R
#LYLE 6NE       N/A         50  43  77  SW3     30.12R
$$

WAZ026-301010-
KITTITAS VALLEY

CITY            SKY/WX      TMP DP  RH  WIND    PRES   REMARKS
ELLENSBURG AP   PTCLDY      50  34  54  NW13    30.17R
#ELLENSBURG CWU N/A         49  37  63  NW5     30.11R
#ELLENSBURG 3NE N/A         47  35  63  N7      30.17R
#ELLENSBURG     N/A         51  40  66  NW5     N/A
#ELLENSBURG 1E  N/A         49  N/A N/A CALM    N/A
#ELLENSBURG 13S N/A         51  39  63  S2      N/A
#KITTITAS 4N    N/A         42  30  62  E3      30.20R
#KITTITAS 3S    N/A         44  39  82  CALM    30.16R
#THORP 6N       N/A         40  34  79  NW8     30.19R
$$

WAZ027-301010-
YAKIMA VALLEY

CITY            SKY/WX      TMP DP  RH  WIND    PRES   REMARKS
SUNNYSIDE AP    CLEAR       48  37  65  CALM    30.16R
YAKIMA AIRPORT  CLEAR       56  36  47  N5      30.18R
YAKIMA-VAGABOND CLEAR       50  35  56  E13     30.16R
#DONALD 2NE     N/A         50  22  33  CALM    29.02R
#GRANDVIEW      N/A         54  35  48  CALM    30.16R
#MABTON         N/A         52  39  61  S5      30.16R
#NACHES 2SW     N/A         51  39  63  W8      30.17R
#TERRACE HTS    N/A         52  33  48  CALM    30.11R
#TOPPENISH      N/A         53  37  54  CALM    30.07R
#WEST VALLEY    N/A         53  38  57  N2      30.14R
#W YAKIMA       N/A         53  38  57  NW1     30.15R
#WHITE SWAN 5E  N/A         46  40  79  NW1     30.16R
#WILEY CITY 3W  N/A         42  31  65  CALM    30.14R
$$

WAZ028-301010-
LOWER COLUMBIA BASIN...WASHINGTON

CITY            SKY/WX      TMP DP  RH  WIND    PRES   REMARKS
PASCO           PTCLDY      52  39  61  W3      30.16R
PROSSER AWOS    N/A         50  39  66  W3      30.20R
RICHLAND AWOS   CLEAR       53  36  52  NW6     30.16R
#BENTON CITY    N/A         55  38  53  CALM    30.06R
#CONNELL 5N     N/A         45  37  73  W1      30.13R
#CONNELL 5NW    N/A         43  38  82  CALM    30.10R
#ELTOPIA 6NW    N/A         50  41  71  CALM    29.12R
#KAHLOTUS       N/A         49  37  63  N2      30.11R
#KENNEWICK 3S   N/A         54  35  48  CALM    30.15R
#PATERSON       N/A         56  38  51  N3      30.14R
#SAGEMOOR 2W    N/A         53  39  59  NW9     29.98R
#TOUCHET 2S     N/A         55  40  57  CALM    30.13R
#WEST PASCO     N/A         56  37  49  N1      30.22R
$$

WAZ029-301010-
FOOTHILLS OF THE BLUES...WASHINGTON

CITY            SKY/WX      TMP DP  RH  WIND    PRES   REMARKS
WALLA WALLA AP  CLOUDY      56  38  51  W8      30.16R
#CLYDE 6NW      N/A         53  36  52  W6      30.11R
#DAYTON SCHOOL  N/A         54  36  50  SE1     30.16R
#LOWDEN 2SE     N/A         57  43  59  CALM    30.13R
#PLEASANT VIEW 1N/A         52  36  54  SW1     30.15R
#PRESCOTT       N/A         55  43  64  CALM    30.13R
#SUDBURY        N/A         62  N/A N/A CALM    N/A
#WHITMAN COLLEGEN/A         57  40  53  W6      30.18R
#WAITSBURG 5S   N/A         51  41  68  S2      30.22R
#WAITSBURG 8N   N/A         50  18  28  S6      30.00R
#WALLA WALLA U  N/A         59  42  53  CALM    30.14R
#WHITMAN MISSIONN/A         57  42  57  CALM    30.16R
$$

WAZ030-301010-
BLUE MOUNTAINS...WASHINGTON

CITY            SKY/WX      TMP DP  RH  WIND    PRES   REMARKS
#DIXIE 5SE      N/A         48  36  63  SW8     30.10R
$$

ORZ009-041-WAZ024-301010-
COLUMBIA RIVER GORGE

CITY            SKY/WX      TMP DP  RH  WIND    PRES   REMARKS
HOOD RIVER AP   PTCLDY      52  43  71  W3      30.19S
THE DALLES AP   PTCLDY      56  44  64  N8      30.17S
#ARLINGTON AIRPON/A         54  43  66  CALM    30.17R
#CELILO DOT     N/A         59  41  51  SW5     N/A
#LYLE           N/A         58  47  67  NW9     30.18R
#MARYHILL 2W    N/A         57  43  59  CALM    N/A
#MOSIER 1S      N/A         54  34  47  NW2     30.18R
#MURDOCK        N/A         57  46  67  NW6     30.14R
#RUFUS DOT      N/A         60  44  55  W3      N/A

$$

ORZ510-301010-
NORTH CENTRAL OREGON

CITY            SKY/WX      TMP DP  RH  WIND    PRES   REMARKS
#ANTELOPE       N/A         41  36  82  NE1     30.03R
#CHENOWITH 1W   N/A         50  41  71  NW16    N/A
#COW CYN RST AREN/A         46  N/A N/A NE2     N/A
#DUFUR 9E       N/A         50  41  71  NW9     30.20R
#GRASS VALLEY   N/A         48  40  74  SE1     N/A
#GRASS VALLEY 1SN/A         47  38  71  S1      30.12R
#KENT DOT       N/A         47  34  60  N6      N/A
#MAUPIN SCHOOL  N/A         52  41  66  CALM    30.21R
#MORO SCHOOL    N/A         51  45  80  W5      30.18R
#SHANIKO 5WSW   N/A         46  35  65  N1      N/A
#SHANIKO 4NW    N/A         46  -58  1  NE1     30.19R
#TYGH VALLEY 2NEN/A         47  39  74  CALM    30.16R
#WAPANITIA AIRPON/A         44  39  82  CALM    30.17R
#WASCO DOT      N/A         49  40  71  CALM    N/A
#WASCO AIRPORT  N/A         50  40  68  W5      N/A
#WASCO 5NE      N/A         47  41  79  CALM    30.15R
$$

ORZ511-301010-
CENTRAL OREGON

CITY            SKY/WX      TMP DP  RH  WIND    PRES   REMARKS
BEND AIRPORT    PTCLDY      43  36  76  CALM    30.20R
MADRAS AIRPORT  PTCLDY      48  43  83  NW6     30.21S
PRINEVILLE AP   PTCLDY      43  36  76  CALM    30.19S
REDMOND AIRPORT PTCLDY      44  34  68  CALM    30.19S
#ASHWOOD SCHOOL N/A         43  36  76  CALM    30.15R
#BEND 1SW       N/A         40  36  85  CALM    N/A
#BEND-AWBREY    N/A         44  39  82  S2      30.11R
#BEND-KIM LN    N/A         44  39  82  CALM    30.17R
#CULVER         N/A         47  38  71  CALM    30.10S
#CULVER 8W      N/A         40  36  85  CALM    30.18R
#LAKE BILLY CHINN/A         45  N/A N/A CALM    30.23R
#MADRAS 4S      N/A         48  16  27  CALM    30.24S
#POWELL BUTTE 3EN/A         43  36  76  S1      N/A
#POWELL BUTTE   N/A         45  36  70  S1      30.05S
#PRINEVILLE 3N  N/A         44  37  76  E1      30.12R

$$


ORZ509-301010-
EAST SLOPES OF OREGON CASCADES

CITY            SKY/WX      TMP DP  RH  WIND    PRES   REMARKS
SISTERS AWOS    N/A         43  37  79  CALM    30.16S
#BLUE BOX PASS  N/A         41  N/A N/A CALM    N/A
#CAMP SHERMAN   N/A         38  33  82  CALM    30.20R
#LA PINE DOT    N/A         41  36  82  SE1     N/A
#LA PINE 4NW    N/A         38  34  85  CALM    30.15R
#LAVA BUTTE DOT N/A         39  34  82  CALM    N/A
#SISTERS AIRPOR N/A         41  39  93  CALM    30.17S
#SISTERS ODOT   N/A         40  N/A N/A CALM    N/A
#SISTERS 1NW    N/A         42  36  79  N5      N/A
#SISTERS 3N     N/A         41  30  65  CALM    30.17S
#SUNRIVER       N/A         39  35  85  CALM    30.13S
#TUMALO 3W      N/A         45  37  73  NE2     30.00R
#WANOGA BUTTE D N/A         40  33  76  N2      N/A

$$

ORZ044-301010-
LOWER COLUMBIA BASIN...OREGON

CITY            SKY/WX      TMP DP  RH  WIND    PRES   REMARKS
HERMISTON       CLOUDY      50  41  71  SW5     30.16R
#BOARDMAN SCHOOLN/A         54  44  69  CALM    30.17R
#ECHO 8SW       N/A         49  43  80  SW1     30.18R
#I-84 EX 198 DOTN/A         52  39  61  E3      N/A
#UMATILLA SCHOOLN/A         51  45  80  CALM    30.20R
#UMATILLA       N/A         55  38  53  CALM    30.09R
$$

ORZ507-301010-
NORTHERN FOOTHILLS OF THE BLUES

CITY            SKY/WX      TMP DP  RH  WIND    PRES   REMARKS
PENDLETON AIRPT CLOUDY      51  37  59  NW8     30.17R
#ADAMS 3WNW     N/A         52  43  71  SW1     30.15R
#ATHENA         N/A         54  41  61  CALM    30.16R
#CAYUSE         N/A         54  44  69  CALM    30.14R
#HELIX SCHOOL   N/A         52  43  71  CALM    30.14R
#HELIX 3N       N/A         50  39  66  CALM    30.14R
#HOLDMAN 5SE    N/A         44  40  86  CALM    30.16R
#HOLDMAN 6E     N/A         49  39  68  CALM    29.95R
#M-F GROVE ELEM N/A         56  38  51  CALM    30.14R
#M-FREEWATER 5SEN/A         54  41  61  CALM    30.16R
#PENDLETON DNTN N/A         56  35  45  CALM    30.19S
#PDT AQUATIC CTRN/A         56  35  45  W3      30.19S
#PDT SUNRIDGE   N/A         54  40  59  CALM    30.19R
#PENDLETON 7NW  N/A         48  37  65  CALM    31.97S
#PILOT ROCK 1S  N/A         54  38  55  S2      30.18R
#PILOT ROCK     N/A         54  39  57  W2      30.20R
#TUTUILLA       N/A         52  43  71  CALM    30.16R
#UMAPINE 2E     N/A         56  44  64  CALM    30.14R
#WESTON SCHOOL  N/A         52  38  59  CALM    30.05R

$$

ORZ508-301010-
SOUTHERN FOOTHILLS OF THE BLUES

CITY            SKY/WX      TMP DP  RH  WIND    PRES   REMARKS
LEXINGTON       PTCLDY      46  39  76  E7      30.22R
#AJAX           N/A         51  33  50  S1      27.92R
#CONDON SCHOOL  N/A         48  39  71  SW2     30.13S
#CONDON 5W      N/A         45  36  70  NW7     30.16S
#FOSSIL SCHOOL  N/A         42  37  82  CALM    30.13S
#HEPPNER EOC    N/A         46  38  73  CALM    30.09S
#HEPPNER 4NE    N/A         46  39  76  CALM    30.14R
#LEXINGTON 2SE  N/A         46  40  79  CALM    30.15R
#OLEX 4N        N/A         49  42  77  SW3     30.16R
#RUGGS 5NE      N/A         42  35  76  S2      30.33R
#RUGGS 2SW      N/A         44  37  76  S1      30.17R

$$

ORZ502-503-301010-
BLUE MOUNTAINS

CITY            SKY/WX      TMP DP  RH  WIND    PRES   REMARKS
MEACHAM         MOCLDY      46  36  68  CALM    30.19
#BATTLE MTN DOT N/A         43  42  96  CALM    N/A
#CUTSFORTH PARK N/A         41  37  86  CALM    29.97R
#GREENHORN 9SW  N/A         40  34  79  CALM    26.35
#HARDMAN 10S    N/A         39  35  85  CALM    30.23R
#HEPPNER 15SE   N/A         40  37  89  CALM    25.71F
#LADD CYN SMT   N/A         49  33  54  W8      N/A
#LADD CREEK ODOTN/A         52  39  61  NE2     N/A
#LONG CREEK HS  N/A         42  40  93  CALM    N/A
#N POWDER DOT   N/A         49  39  68  NW8     N/A
#PIKES PEAK     N/A         46  34  63  SW13    27.99S WCI 40
#TOLLGATE       N/A         39  32  76  CALM    30.02R
#TROY SCHOOL    N/A         53  39  59  CALM    29.95R
#UKIAH          N/A         39  36  89  CALM    30.06R
#WESTON 4E      N/A         48  35  60  CALM    30.09R
$$

ORZ505-301010-
JOHN DAY BASIN

CITY            SKY/WX      TMP DP  RH  WIND    PRES   REMARKS
JOHN DAY        N/A         N/A N/A N/A MISG    N/A
#DAYVILLE SCHOOLN/A         51  36  56  CALM    30.15R
#MITCHELL       N/A         43  38  82  CALM    30.33S
#MITCHELL 8NW   N/A         47  35  63  CALM    30.32R
#MONUMENT HS    N/A         48  36  63  CALM    30.13R
#MT. VERNON 5SE N/A         44  37  76  CALM    30.14R
#SPRAY SCHOOL   N/A         46  N/A N/A CALM    N/A
#WINLOCK        N/A         N/A N/A N/A S1      30.14S
$$

ORZ506-301010-
OCHOCO AND JOHN DAY HIGHLANDS

CITY            SKY/WX      TMP DP  RH  WIND    PRES   REMARKS
#HORSE RIDGE DO N/A         36  33  89  S1      N/A
#KEYES SMT DOT  N/A         42  34  73  NW8     N/A
#PAULINA SCHOOL N/A         48  35  60  NW5     N/A
#PINE MTN OBS   N/A         36  33  89  NW5     N/A
#PRAIRIE CITY   N/A         49  37  63  CALM    30.32R
#SENECA         N/A         43  N/A N/A CALM    N/A
#SENECA 9NW     N/A         42  35  76  CALM    30.08R
$$

ORZ049-301010-
GRANDE RONDE VALLEY

CITY            SKY/WX      TMP DP  RH  WIND    PRES   REMARKS
LA GRANDE       CLOUDY      54  34  47  NW12    30.17R
#COVE           N/A         49  43  80  CALM    30.20R
#COVE SCHOOL    N/A         48  41  77  CALM    30.18R
#COVE 6NW       N/A         48  40  74  W2      30.06R
#ELGIN 3N       N/A         45  33  63  CALM    30.14R
#ELGIN 1E       N/A         49  39  68  CALM    N/A
#ISLAND CITY 4N N/A         46  43  89  CALM    30.24S
#LADD CYN DOT   N/A         54  39  57  W8      N/A
#UNION 1S       N/A         51  39  63  CALM    30.02R
$$

ORZ050-301010-
WALLOWA COUNTY

CITY            SKY/WX      TMP DP  RH  WIND    PRES   REMARKS
#ENTERPRISE AP  N/A         49  29  46  CALM    30.09R
#ENTERPRISE HS  N/A         47  39  74  CALM    30.16R
#IMNAHA SCHOOL  N/A         50  42  74  CALM    30.13R
#IMNAHA 10S     N/A         49  40  71  SW1     30.13R
#JOSEPH 3N      N/A         40  30  67  S1      30.17R
#JOSEPH 3W      N/A         N/A N/A N/A CALM    29.99R
#LOSTINE 3SE    N/A         48  39  71  CALM    30.14S
#MT HOWARD 8000 N/A         31  29  92  NW3     30.19S
#PROMISE 1S     N/A         47  35  63  E2      30.17S
#WALLOWA SCHOOL N/A         51  36  56  CALM    30.12R



$$



USA.gov is the U.S. government's official web portal to all federal, state and local government web resources and services.